Cloud_Cover
88 25 60 100 99 100 100 28 5 1 4 5 3 0 0 5 5 4 0 5 5 5 4 0 0 0 0 0 0 0 0 0 0 0 0 0 0 0 0 0 0 0 0 0 0 0 0 0 0
3 46 57 100 100 94 79 5 5 12 2 20 15 0 1 0 2 3 1 3 5 5 5 1 0 0 0 0 0 0 0 0 0 0 0 0 0 0 0 0 0 0 0 0 4 5 2 0 0
4 100 97 99 98 86 24 2 5 55 2 7 5 5 4 4 5 5 5 0 1 5 1 0 0 0 0 0 0 0 0 0 0 0 0 0 0 0 0 0 0 4 2 0 2 20 21 8 5
6 42 100 100 100 100 98 5 5 5 5 0 3 5 3 0 5 3 2 0 2 5 4 0 0 0 2 0 0 0 0 0 0 0 0 0 0 0 2 90 69 97 57 3 3 0 46 73 10
83 96 69 100 100 92 72 5 5 5 5 4 5 5 5 5 5 0 2 2 5 5 5 1 0 0 0 0 0 0 0 0 0 0 0 0 0 0 5 80 100 100 100 100 87 5 2 100 100
41 49 21 58 100 88 20 6 5 5 5 5 5 5 5 4 10 3 4 2 7 37 5 5 4 0 0 0 0 0 0 0 0 0 0 0 0 1 5 3 53 100 100 100 100 66 3 40 100
21 56 47 97 100 100 86 76 44 5 5 5 11 5 5 14 75 5 0 5 86 68 45 5 5 0 0 0 0 0 0 0 0 0 0 0 0 0 3 3 12 99 100 100 100 82 5 5 96
67 18 96 100 100 100 88 77 5 4 5 5 5 5 5 5 29 3 3 59 91 72 70 74 5 5 0 0 0 0 0 0 0 0 0 0 0 0 0 0 4 12 88 100 95 7 4 0 0
38 26 100 100 100 100 9 4 6 5 5 5 4 5 5 5 2 4 5 98 82 10 98 97 5 0 0 0 0 0 0 0 3 0 0 0 0 0 0 0 0 0 0 2 5 4 1 0 0
22 35 100 100 97 37 11 5 21 5 4 100 1 5 5 5 5 5 8 71 86 75 82 5 5 5 5 0 0 0 0 0 0 0 0 0 0 0 0 0 0 0 0 0 4 16 8 5 9
100 99 87 100 100 29 50 93 68 30 81 68 5 8 5 5 5 23 5 100 68 49 7 5 39 5 0 0 0 0 0 0 0 0 0 0 0 0 0 0 0 0 0 0 0 0 0 10 31
17 97 7 70 100 5 82 96 100 27 90 26 5 4 5 4 22 5 36 59 42 43 11 85 6 5 5 4 5 4 0 0 0 0 0 0 0 0 0 1 5 5 0 0 4 2 1 1 21
5 5 3 7 5 6 94 92 98 98 95 80 5 0 4 5 5 15 33 19 20 0 4 5 5 2 5 5 5 5 0 0 0 0 0 0 0 0 3 0 5 5 5 18 12 28 7 5 18
5 5 4 5 79 86 12 100 56 100 23 8 3 1 5 5 6 84 50 4 0 0 33 7 0 4 0 5 5 5 0 0 0 0 0 0 0 0 3 5 7 6 39 6 13 10 5 6 18
5 10 28 91 100 88 100 100 100 8 22 4 2 4 0 89 78 39 7 0 0 0 2 5 0 0 0 0 0 0 0 0 1 0 0 0 0 9 36 42 35 5 23 63 18 3 1 10 16
54 100 100 100 100 100 100 98 14 84 1 0 13 14 100 100 100 20 8 0 0 0 0 0 1 3 5 4 0 0 0 0 0 0 0 0 9 36 62 55 41 37 5 6 5 5 14 14 23
100 100 78 100 100 100 100 0 97 68 8 34 100 100 100 100 72 5 0 0 0 0 0 0 5 5 5 5 0 0 0 0 0 0 0 2 26 52 66 89 100 63 31 13 18 28 18 18 21
64 1 0 1 21 100 72 19 99 98 100 100 100 100 100 65 10 0 0 0 0 0 0 0 5 22 24 75 0 0 3 0 0 0 0 20 41 65 64 87 100 100 100 75 58 47 26 22 17
0 0 0 0 2 90 96 99 100 100 100 100 100 74 1 1 0 0 0 0 0 0 0 39 78 5 72 61 0 0 0 0 0 0 0 29 55 54 89 86 98 99 100 99 97 75 29 22 16
5 0 0 0 1 10 5 1 0 1 13 5 87 1 0 0 2 1 5 0 0 0 0 5 66 5 5 3 0 0 0 0 0 0 8 43 49 64 77 84 79 97 100 100 98 38 36 26 32
5 1 18 78 64 37 5 1 0 0 0 0 0 3 0 0 1 5 0 0 0 0 5 3 1 5 5 0 0 0 0 0 0 0 8 25 21 85 78 59 62 100 97 40 47 59 41 43 20
0 92 45 5 71 3 19 0 0 0 0 0 4 4 0 5 5 4 0 0 0 0 0 0 0 4 0 0 0 0 0 0 0 0 4 23 13 74 62 89 60 45 40 29 24 30 31 4 1
8 94 25 11 4 4 0 1 0 0 7 99 15 0 5 15 64 0 0 0 0 0 0 0 0 0 0 0 0 0 0 0 0 1 19 26 19 45 13 22 25 35 4 20 9 10 22 11 4
86 79 0 4 3 0 0 0 98 96 40 6 2 98 12 18 0 0 0 0 0 0 0 0 0 0 0 0 0 0 0 0 1 5 7 18 44 42 26 5 4 14 8 29 19 5 9 15 15
2 5 4 0 0 0 1 3 100 34 4 52 100 46 44 0 4 2 0 0 0 0 0 0 0 0 0 0 0 0 0 0 5 4 5 41 65 53 21 5 4 1 0 1 7 5 45 58 100
96 95 65 4 4 7 1 65 100 26 5 100 65 6 5 30 5 0 0 0 0 0 0 0 0 0 0 0 0 0 0 3 5 16 6 31 39 42 6 4 0 0 0 5 12 99 100 100 100
16 5 65 3 0 2 62 100 100 2 100 78 5 42 11 6 5 0 0 0 0 0 0 0 0 0 0 0 0 0 0 3 5 5 29 31 41 14 5 4 5 3 5 56 91 100 100 96 100
0 1 0 0 0 100 100 98 100 71 79 6 95 100 85 16 5 2 0 0 0 0 0 0 0 0 0 0 0 0 0 3 0 5 25 47 19 14 5 0 4 4 11 43 100 100 100 100 100
0 0 0 0 83 100 100 100 76 98 2 65 96 99 12 17 5 1 3 0 0 0 0 0 0 0 0 0 0 0 0 5 3 5 5 6 4 4 0 1 5 5 11 80 100 100 100 100 99
0 0 0 0 98 100 100 100 12 3 6 99 100 100 42 99 3 5 0 0 0 0 0 0 0 0 0 0 0 1 4 8 54 5 5 5 5 7 0 1 5 90 35 100 100 98 100 100 100